This is the latest recevied weather packets stored in our database for station/object N5JXS. If no packets are shown the sender has not sent any weather packets the latest 10 day(s).
| Time | Temp. | Humidity | Pressure | Rain* | Wind** | Luminosity | Snow |
|---|---|---|---|---|---|---|---|
| 1788023685 | 23.89° C | 40% | 1027.7 hPa | 0 mm | - | 181 W/m² | - |
| 1788023376 | 23.89° C | 39% | 1027.7 hPa | 0 mm | - | 185 W/m² | - |
| 1788023075 | 24.44° C | 38% | 1028 hPa | 0 mm | - | 172 W/m² | - |
| 1788022773 | 23.89° C | 38% | 1027.6 hPa | 0 mm | - | 365 W/m² | - |
| 1788022472 | 23.89° C | 38% | 1028.1 hPa | 0 mm | - | 359 W/m² | - |
| 1788022167 | 23.89° C | 38% | 1028 hPa | 0 mm | - | 435 W/m² | - |
| 1788021861 | 23.89° C | 38% | 1028.1 hPa | 0 mm | - | 442 W/m² | - |
| 1788021560 | 23.89° C | 41% | 1028.1 hPa | 0 mm | - | 514 W/m² | - |
| 1788021258 | 23.33° C | 41% | 1028.1 hPa | 0 mm | - | 409 W/m² | - |
| 1788020954 | 23.33° C | 39% | 1028.2 hPa | 0 mm | - | 274 W/m² | - |
| 1788020654 | 23.33° C | 39% | 1028.2 hPa | 0 mm | - | 351 W/m² | - |
| 1788020350 | 23.33° C | 39% | 1028.2 hPa | 0 mm | - | 406 W/m² | - |
| 1788020046 | 23.33° C | 38% | 1028.1 hPa | 0 mm | - | 215 W/m² | - |
| 1788019746 | 22.78° C | 38% | 1028.2 hPa | 0 mm | - | 237 W/m² | - |
| 1788019445 | 22.78° C | 39% | 1028.1 hPa | 0 mm | - | 206 W/m² | - |
| 1788019143 | 23.33° C | 40% | 1027.8 hPa | 0 mm | - | 172 W/m² | - |
| 1788018837 | 22.78° C | 42% | 1027.8 hPa | 0 mm | - | 187 W/m² | - |
| 1788018533 | 22.22° C | 40% | 1028 hPa | 0 mm | - | 184 W/m² | - |
| 1788018237 | 22.22° C | 41% | 1027.8 hPa | 0 mm | - | 183 W/m² | - |
| 1788017928 | 22.22° C | 42% | 1027.7 hPa | 0 mm | - | 174 W/m² | - |
| 1788017624 | 21.67° C | 42% | 1027.7 hPa | 0 mm | - | 170 W/m² | - |
| 1788017320 | 21.67° C | 42% | 1027.7 hPa | 0 mm | - | 158 W/m² | - |
| 1788017016 | 21.67° C | 43% | 1027.5 hPa | 0 mm | - | 153 W/m² | - |
| 1788016716 | 21.11° C | 44% | 1027.3 hPa | 0 mm | - | 146 W/m² | - |
| 1788016413 | 21.11° C | 43% | 1027.3 hPa | 0 mm | - | 150 W/m² | - |
* Rain latest hour (hover to see other rain measurements)
** Current wind speed in m/s (hover to see current wind gust speed)